Regional Weather Roundup
Issued by NWS

Home | Current Version | Previous Version | Graphics & Text | Print | Product List | Glossary On
Versions: 1 2 3 4 5 6 7 8 9 10 11 12 13 14 15 16 17 18 19 20 21 22 23 24 25 26 27 28 29 30 31 32 33 34 35 36 37 38 39 40 41 42 43 44 45 46 47
000
ASUS45 KPSR 250910
RWRAZ

ARIZONA REGIONAL HOURLY WEATHER ROUNDUP
NATIONAL WEATHER SERVICE TUCSON AZ
200 AM MST SUN JUN 25 2017

NOTE: FAIR INDICATES FEW OR NO CLOUDS BELOW 12,000 FEET WITH NO
SIGNIFICANT WEATHER AND/OR OBSTRUCTIONS TO VISIBILITY.

AZZ001>003-036-251000-
NORTHWEST ARIZONA

CITY           SKY/WX    TMP DP  RH WIND       PRES   REMARKS
BULLHEAD CITY  MOCLDY   100  32   9 CALM      29.66R
KINGMAN        MOCLDY    83  28  13 SE12      29.93S
$$

AZZ004>008-015-016-018-251000-
NORTH CENTRAL ARIZONA

CITY           SKY/WX    TMP DP  RH WIND       PRES   REMARKS
GRAND CANYON   MOCLDY    57  29  34 CALM      30.24F
PRESCOTT       CLOUDY    81  33  17 CALM      30.10R
FLAGSTAFF      PTCLDY    65  31  28 SW7       30.26S
PAYSON         CLOUDY    82  36  18 VRB5      30.17R
PAGE           CLEAR     77  29  17 CALM      30.04S
$$

AZZ009>014-017-251000-
NORTHEAST ARIZONA

CITY           SKY/WX    TMP DP  RH WIND       PRES   REMARKS
WINSLOW        PTCLDY    74  33  22 S6        30.09R
SAINT JOHNS    PTCLDY    71  38  29 CALM      30.17R
WINDOW ROCK    PTCLDY    56  28  34 S5        30.27S
SHOW LOW       MOCLDY    72  39  30 S16G23    30.25S
$$

AZZ023-251000-
GREATER PHOENIX AREA

CITY           SKY/WX    TMP DP  RH WIND       PRES   REMARKS
PHOENIX        MOCLDY    98  44  15 SE7       29.73R
BUCKEYE        CLOUDY    93  48  21 CALM      29.73R
LUKE AFB       CLOUDY    98  51  20 SW12      29.71R
DEER VALLEY    CLOUDY    97  42  15 S7        29.76R
SCOTTSDALE     MOCLDY    97  45  16 CALM      29.78R
MESA-GATEWAY   MOCLDY    90  43  19 SE10      29.80R
$$

AZZ027-028-251000-
SOUTHWEST MARICOPA COUNTY AND PINAL COUNTY

CITY           SKY/WX    TMP DP  RH WIND       PRES   REMARKS
CASA GRANDE    MOCLDY    91  43  18 NE6       29.81R
$$

AZZ503-504-507>509-251000-
SOUTHEAST ARIZONA

CITY           SKY/WX    TMP DP  RH WIND       PRES   REMARKS
TUCSON         PTCLDY    91  53  27 SE18G28   29.97R
DAVIS-MONTHAN  CLOUDY    89  54  29 SE16      29.96R
NOGALES        CLEAR     81  53  37 CALM      30.08F
SIERRA VISTA   CLEAR     75  53  45 S13       30.16F
DOUGLAS        MOCLDY    72  57  59 S6        30.13F
SAFFORD        PTCLDY    82  54  37 E16       30.02F
$$

AZZ020-021-025-026-031-251000-
SOUTHWEST ARIZONA

CITY           SKY/WX    TMP DP  RH WIND       PRES   REMARKS
YUMA           MOCLDY    89  53  29 SW6       29.68R
$$

CAZ031-033-041-043-047-048-061-251000-
SOUTHERN CALIFORNIA

CITY           SKY/WX    TMP DP  RH WIND       PRES   REMARKS
DOWNTOWN L.A.  CLEAR     65  60  84 CALM      29.86S
L.A. AIRPORT   CLEAR     64  61  90 S5        29.86S
SAN DIEGO      CLOUDY    66  62  87 N3        29.88F
BURBANK        CLEAR     68  58  70 S3        29.86S
ONTARIO        CLEAR     70  59  68 SW3       29.86F
RIVERSIDE      CLEAR     69  60  73 CALM      29.87S
PALM SPRINGS   CLEAR     93  54  26 W3        29.71R
EL CENTRO NAS  CLEAR     87  43  21 N9        29.67R
IMPERIAL       CLEAR     92  50  23 NW7       29.65R
BLYTHE         CLEAR     89  56  32 CALM      29.67S
NEEDLES        PTCLDY   108  31   7 NW13      29.68R HX 100
$$

NVZ020-UTZ003-251000-
SOUTHERN NEVADA-UTAH

CITY           SKY/WX    TMP DP  RH WIND       PRES   REMARKS
LAS VEGAS      MOCLDY    96  30   9 CALM      29.81R
SALT LAKE CITY CLEAR     69  39  33 CALM      30.15S
$$

NMZ009-TXZ055-251000-
NEW MEXICO-WEST TEXAS

CITY           SKY/WX    TMP DP  RH WIND       PRES   REMARKS
ALBUQUERQUE    CLEAR     69  53  56 E7        30.27R
EL PASO        CLOUDY    73  62  68 SE9       30.17F
$$


........................KEY........................
SKY/WX - SKY CONDITION/WEATHER
TMP    - TEMPERATURE IN FAHRENHEIT
DP     - DEWPOINT IN FAHRENHEIT
RH     - RELATIVE HUMIDITY IN PERCENT
WIND   - DIRECTION AND SPEED IN MILES PER HOUR (MPH)
VRB    - VARIABLE WIND DIRECTION
PRES   - MEAN SEA LEVEL PRESSURE IN INCHES OF MERCURY
         F - FALLING PRESSURE   R - RISING PRESSURE
         S - STEADY PRESSURE
VSB    - VISIBILITY IN MILES
HX     - HEAT INDEX IN FAHRENHEIT
WCI    - WIND CHILL INDEX IN FAHRENHEIT
TC     - TEMPERATURE IN CELSIUS WHICH IS ALSO KNOWN AS
         TEMPERATURE IN CENTIGRADE
AFB    - AIR FORCE BASE
         LUKE AFB IS LUKE AIR FORCE BASE
         DAVIS-MONTHAN IS DAVIS-MONTHAN AIR FORCE BASE
NAS    - NAVAL AIR STATION
         EL CENTRO NAS IS EL CENTRO NAVAL AIR STATION
N/A    - NOT AVAILABLE





USA.gov is the U.S. government's official web portal to all federal, state and local government web resources and services.